Temp
57 56 52 53 41 35 30 38 43 49 51 54 59 55 57 59 59 50 58 63 63 63 65 66 71 72 72 72 72 73 73 75 77 77 77 77 76 76 77 76 76 77 78 79 79 78 78 76 75
54 59 53 44 34 28 35 41 47 51 54 58 59 58 53 54 56 56 57 63 64 65 65 65 70 72 72 71 72 72 72 72 74 76 77 76 77 76 77 76 76 77 78 79 79 78 77 75 75
56 56 45 38 31 30 33 43 43 52 55 54 54 55 53 50 54 54 58 61 62 62 64 66 70 72 72 71 71 72 72 72 72 71 74 77 76 76 76 76 76 77 78 78 79 79 77 75 74
52 48 43 33 32 36 38 42 46 51 56 58 52 52 50 53 55 56 58 60 59 59 62 66 70 71 71 71 71 71 72 72 72 72 72 73 75 75 75 75 76 76 77 78 78 78 77 74 74
47 42 33 28 33 38 43 47 48 50 49 50 51 48 45 53 55 56 57 60 58 58 59 62 68 69 70 70 70 71 71 71 71 72 71 71 72 74 75 75 75 76 76 77 77 76 76 74 73
40 39 28 27 33 40 44 48 47 47 48 49 46 45 46 54 54 53 56 55 57 57 58 59 62 65 67 68 68 69 69 70 70 70 71 70 70 70 73 75 75 75 76 76 76 76 74 73 73
37 33 28 28 34 37 44 49 45 43 42 43 47 43 46 48 52 53 51 52 54 56 58 57 58 60 62 64 65 66 67 67 68 68 69 68 68 68 69 71 74 75 75 75 75 74 73 73 72
39 35 28 29 32 35 43 44 44 41 41 48 49 41 38 48 51 51 49 49 49 55 55 56 56 56 56 56 62 63 64 65 65 65 64 64 64 66 66 66 68 75 75 75 74 73 72 72 72
41 29 25 31 32 38 41 40 44 46 43 42 45 43 49 51 53 48 47 48 50 54 54 54 54 54 55 57 59 58 60 61 61 59 60 59 60 62 64 65 67 69 73 73 73 71 71 70 69
36 27 32 38 38 40 39 39 39 40 42 41 42 48 50 50 52 50 47 45 46 48 51 52 52 53 54 59 55 53 56 53 53 54 55 55 58 60 62 61 63 66 66 70 72 71 68 66 70
36 31 39 40 42 43 40 40 40 37 37 40 40 41 46 47 46 45 48 49 46 48 49 51 52 51 51 52 50 49 50 50 50 51 52 53 55 55 57 58 65 66 63 69 70 70 69 69 69
32 38 39 41 40 37 36 39 35 37 39 42 43 45 43 44 47 47 46 47 47 47 48 50 51 51 50 49 48 49 49 50 50 50 52 50 49 50 53 57 60 62 68 67 70 70 70 68 69
32 35 37 38 38 38 40 36 36 37 42 45 45 45 45 45 46 45 47 47 46 46 48 49 49 49 50 49 47 47 48 48 49 50 50 50 48 48 51 55 59 58 59 67 68 69 69 68 68
34 34 34 35 36 37 34 35 36 38 43 42 43 43 44 44 44 43 44 45 46 48 48 48 48 48 49 47 47 46 46 47 48 49 49 50 49 48 50 53 56 59 59 60 67 69 68 68 69
34 28 32 31 34 33 36 30 30 38 42 37 37 37 40 41 43 42 45 45 47 46 47 47 47 48 47 47 47 46 46 49 46 48 50 50 50 49 49 50 53 58 59 57 61 67 69 68 68
28 24 19 30 34 35 33 21 33 39 38 37 40 42 38 41 43 44 45 45 45 44 44 45 50 46 46 46 45 46 46 45 45 46 47 49 50 50 48 49 51 55 59 57 56 65 66 66 66
22 17 19 24 34 32 29 23 33 38 37 35 36 38 40 43 42 42 44 40 41 43 44 44 44 44 45 45 44 44 44 44 44 44 45 47 49 50 48 48 49 54 56 59 58 62 66 66 66
18 18 21 20 28 29 25 24 31 35 35 34 34 34 35 37 38 40 41 41 41 41 41 42 42 42 42 42 41 41 41 42 43 43 45 47 48 49 48 48 49 49 51 55 59 56 62 66 66
23 20 18 23 29 25 23 23 28 32 33 32 33 32 34 36 37 38 39 38 38 38 39 40 40 40 39 37 37 37 37 39 41 42 45 47 47 49 48 48 48 48 47 51 57 58 55 63 66
23 19 17 24 29 26 23 21 27 30 31 33 32 28 30 30 32 36 37 36 36 36 36 37 38 39 39 38 37 38 37 38 40 42 44 46 47 47 48 47 47 48 47 47 54 58 57 58 62
22 19 19 19 25 25 20 17 23 29 33 33 31 31 30 30 33 35 34 33 32 32 32 36 36 36 37 38 38 38 38 38 38 40 41 44 46 47 46 47 47 47 47 47 49 55 58 56 54
16 26 24 21 15 7 19 1 16 26 29 28 29 31 32 33 34 32 33 31 30 31 32 32 35 35 37 37 36 35 34 34 37 39 40 42 44 45 46 47 47 47 48 47 48 53 56 58 55
20 26 22 21 14 3 9 1 13 24 21 25 27 29 31 31 30 28 29 30 30 30 29 31 32 32 34 34 34 34 34 35 37 38 38 40 42 43 45 45 45 46 47 47 47 50 56 59 58
26 18 19 7 -5 -10 6 3 9 18 21 24 29 30 30 28 27 27 28 29 28 29 28 28 28 29 31 32 32 32 31 32 33 34 35 37 39 41 43 45 45 46 46 46 47 51 55 57 59
10 4 1 -8 -11 -9 15 8 11 21 23 22 20 24 25 27 25 24 24 25 26 26 27 27 27 26 27 28 28 29 30 31 31 32 33 34 35 38 40 42 43 45 46 46 47 49 54 57 56
13 7 2 -4 -7 1 14 -6 11 24 25 26 25 23 26 23 24 23 23 23 24 26 26 25 25 25 26 26 26 27 28 28 29 31 32 33 34 36 39 41 43 44 45 46 47 48 52 57 55
13 -1 14 7 -13 -8 1 12 24 24 24 22 24 25 22 21 21 20 22 22 22 22 23 24 23 23 24 25 25 25 26 26 26 29 31 32 34 36 38 40 41 43 44 45 47 48 52 56 56
18 19 1 -0 -6 -15 -4 1 4 13 13 21 20 21 22 20 20 20 21 21 21 21 22 22 22 22 22 23 23 24 24 25 26 27 27 29 32 34 36 38 39 41 42 43 44 45 50 55 56
6 4 8 4 4 -2 -11 -6 4 3 4 12 16 23 19 17 16 17 18 19 18 17 18 19 20 20 20 22 22 23 23 24 25 25 26 28 30 33 34 36 38 39 39 41 43 45 49 53 54
9 4 11 1 -5 -6 -8 0 -1 1 9 16 20 23 22 18 12 12 15 16 16 17 17 17 18 19 20 20 20 21 23 23 23 24 25 28 29 31 33 35 37 38 40 42 42 43 49 51 51
MSLP
1015.96 1015.67 1015.77 1015.89 1017.73 1018.25 1017.51 1015.42 1014.20 1012.98 1012.20 1010.92 1010.43 1010.21 1010.14 1009.83 1009.94 1010.73 1010.50 1010.80 1010.84 1010.68 1010.71 1010.55 1010.30 1009.98 1009.55 1008.78 1008.78 1008.78 1008.67 1008.79 1008.93 1008.97 1009.24 1009.59 1009.83 1009.97 1010.10 1010.36 1010.61 1010.83 1011.09 1011.52 1011.91 1012.20 1012.46 1012.84 1013.09
1015.95 1015.81 1016.14 1017.21 1018.28 1018.43 1016.49 1014.93 1013.83 1012.49 1011.72 1010.88 1010.33 1009.83 1009.96 1010.22 1010.54 1011.41 1011.41 1011.17 1010.91 1010.42 1010.58 1010.60 1010.20 1010.02 1009.79 1009.47 1009.37 1009.15 1009.24 1009.22 1009.09 1009.16 1009.16 1009.30 1009.67 1009.93 1010.03 1010.27 1010.54 1010.71 1010.96 1011.34 1011.86 1012.19 1012.63 1012.94 1013.18
1016.51 1016.55 1017.41 1018.42 1018.85 1017.22 1015.90 1014.00 1013.47 1012.82 1012.07 1011.79 1011.22 1010.44 1010.89 1011.43 1011.84 1011.66 1011.81 1011.59 1011.16 1010.99 1010.61 1010.50 1010.43 1010.18 1009.98 1010.02 1009.93 1009.73 1009.50 1009.57 1009.51 1009.51 1009.43 1009.27 1009.43 1009.71 1009.95 1010.13 1010.40 1010.65 1010.81 1011.11 1011.54 1012.04 1012.48 1012.97 1013.20
1016.17 1017.08 1018.45 1018.47 1017.87 1015.91 1015.08 1014.14 1013.75 1013.02 1012.02 1011.67 1011.73 1011.81 1011.88 1012.50 1012.35 1012.19 1012.19 1011.70 1011.52 1011.48 1010.91 1010.67 1010.45 1010.49 1010.34 1010.25 1010.24 1010.05 1010.09 1009.88 1009.91 1009.71 1009.64 1009.55 1009.50 1009.65 1009.78 1010.01 1010.24 1010.47 1010.72 1010.92 1011.21 1011.73 1012.30 1012.77 1013.16
1017.12 1018.30 1018.83 1018.61 1017.51 1016.02 1015.10 1014.35 1014.01 1013.63 1012.89 1012.30 1012.31 1011.97 1012.55 1012.75 1012.53 1012.38 1012.30 1012.10 1011.91 1011.82 1011.38 1011.31 1010.71 1010.70 1010.69 1010.60 1010.57 1010.40 1010.18 1010.25 1010.08 1010.07 1009.91 1009.77 1009.64 1009.68 1009.69 1009.85 1010.10 1010.29 1010.49 1010.72 1010.99 1011.44 1012.06 1012.54 1013.00
1018.51 1019.09 1019.79 1018.95 1017.59 1016.38 1015.44 1014.65 1014.39 1013.74 1013.21 1012.89 1012.94 1012.83 1012.77 1012.74 1012.66 1012.80 1012.56 1012.47 1012.30 1012.15 1011.88 1011.62 1011.22 1010.99 1010.85 1010.80 1011.04 1010.79 1010.47 1010.19 1010.25 1010.10 1010.09 1010.14 1009.87 1009.69 1009.71 1009.74 1009.75 1010.00 1010.21 1010.50 1010.69 1011.11 1011.72 1012.23 1012.79
1018.76 1019.68 1019.22 1018.46 1017.29 1016.36 1015.09 1014.14 1014.08 1013.83 1013.58 1013.48 1013.42 1013.11 1013.02 1013.24 1013.13 1013.03 1012.91 1012.75 1012.52 1012.09 1012.03 1011.64 1011.68 1011.43 1011.05 1010.86 1010.93 1010.99 1010.79 1010.50 1010.30 1010.24 1010.18 1010.27 1009.99 1009.75 1009.52 1009.60 1009.62 1009.61 1009.93 1010.24 1010.51 1010.79 1011.35 1011.82 1012.36
1018.77 1019.49 1019.33 1018.49 1017.19 1015.90 1014.99 1014.70 1014.09 1014.38 1013.62 1013.69 1013.44 1013.29 1013.42 1013.21 1013.21 1013.11 1013.07 1012.75 1012.45 1012.21 1011.99 1011.80 1011.51 1011.40 1011.29 1011.03 1010.76 1010.88 1010.78 1010.70 1010.35 1010.51 1010.31 1010.10 1010.11 1009.91 1009.51 1009.33 1009.51 1009.47 1009.55 1009.98 1010.27 1010.62 1010.96 1011.50 1011.86
1018.65 1019.56 1019.56 1018.61 1017.51 1016.11 1015.65 1015.49 1014.97 1014.45 1014.34 1014.31 1013.86 1013.85 1013.28 1012.92 1012.93 1013.13 1013.06 1012.93 1012.49 1012.03 1011.71 1011.49 1011.28 1011.16 1010.99 1010.94 1010.90 1010.78 1010.78 1010.67 1010.43 1010.57 1010.69 1010.32 1010.13 1009.95 1009.80 1009.29 1009.16 1009.26 1009.28 1009.44 1009.81 1010.24 1010.62 1011.12 1011.72
1018.93 1019.51 1018.74 1017.95 1017.43 1016.25 1015.87 1015.84 1015.35 1015.09 1014.67 1014.65 1014.36 1013.90 1013.45 1013.22 1012.39 1012.29 1012.35 1012.29 1012.20 1011.81 1011.49 1011.22 1011.00 1010.86 1010.71 1010.69 1010.75 1010.81 1010.66 1010.58 1010.62 1010.62 1010.72 1010.67 1010.32 1009.98 1009.88 1009.40 1009.03 1008.97 1008.93 1009.17 1009.33 1009.81 1010.25 1010.68 1011.45
1018.66 1018.72 1018.37 1017.96 1017.54 1016.90 1015.84 1015.75 1015.70 1015.19 1013.98 1014.77 1014.39 1013.71 1013.46 1013.13 1012.87 1012.41 1011.54 1011.41 1011.35 1011.02 1010.90 1010.69 1010.66 1010.54 1010.58 1010.42 1010.53 1010.69 1010.44 1010.31 1010.48 1010.74 1010.64 1010.79 1010.39 1010.16 1009.83 1009.56 1008.97 1008.48 1008.47 1008.57 1009.02 1009.41 1010.05 1010.45 1010.89
1018.92 1018.50 1018.31 1018.06 1017.83 1017.42 1016.20 1015.95 1015.60 1015.65 1014.34 1014.48 1014.02 1013.26 1012.79 1012.53 1012.28 1012.04 1011.60 1011.04 1010.62 1010.17 1010.22 1010.01 1010.02 1010.15 1010.08 1010.04 1010.25 1010.20 1010.18 1009.84 1010.31 1010.62 1010.66 1010.76 1010.70 1010.43 1010.07 1009.66 1009.15 1008.72 1007.66 1007.39 1007.97 1008.45 1009.05 1009.69 1010.16
1019.17 1018.59 1018.60 1018.29 1018.08 1017.41 1015.98 1016.00 1015.50 1015.02 1014.51 1013.74 1013.28 1012.82 1012.44 1011.97 1011.36 1011.14 1010.91 1010.59 1010.35 1010.18 1009.50 1009.32 1009.39 1009.53 1009.53 1009.55 1009.61 1009.89 1009.92 1009.76 1010.18 1010.49 1010.43 1010.52 1010.68 1010.37 1010.12 1009.44 1009.19 1008.40 1008.20 1007.08 1006.12 1007.54 1008.38 1009.02 1009.60
1019.04 1018.99 1018.75 1018.40 1017.83 1017.34 1016.24 1015.48 1015.71 1014.67 1013.75 1013.09 1012.66 1012.12 1011.59 1011.36 1010.78 1010.28 1010.12 1009.90 1009.76 1009.46 1009.23 1009.08 1009.10 1009.05 1009.07 1009.13 1009.28 1009.17 1009.44 1010.00 1010.12 1010.29 1010.25 1010.37 1010.40 1010.33 1010.04 1009.42 1009.29 1008.23 1007.90 1007.95 1005.72 1006.66 1007.47 1008.10 1008.73
1019.31 1018.73 1018.60 1018.10 1017.75 1017.24 1016.45 1014.15 1015.49 1014.41 1013.39 1012.76 1012.27 1011.69 1011.04 1010.74 1010.41 1010.23 1009.58 1009.40 1009.05 1008.92 1008.93 1008.97 1008.89 1008.75 1008.69 1008.90 1009.13 1009.36 1009.57 1009.80 1010.01 1010.11 1010.04 1010.05 1010.04 1010.00 1009.89 1009.48 1009.09 1008.23 1007.46 1007.68 1007.86 1005.17 1006.79 1007.54 1007.92
1019.95 1019.33 1018.82 1017.95 1017.66 1017.03 1017.09 1013.51 1014.65 1014.16 1013.24 1012.36 1011.75 1011.25 1010.66 1010.15 1009.78 1009.26 1008.93 1008.57 1008.43 1008.71 1009.02 1009.14 1008.95 1008.89 1008.89 1008.98 1009.13 1009.29 1009.42 1009.63 1009.75 1009.86 1009.92 1009.79 1009.60 1009.56 1009.57 1009.39 1008.74 1008.26 1007.55 1007.42 1007.35 1005.60 1005.81 1006.64 1006.87
1020.50 1019.91 1018.93 1017.58 1017.49 1017.04 1017.03 1014.94 1013.85 1013.23 1012.70 1011.90 1011.49 1011.05 1010.49 1009.84 1009.26 1008.76 1008.64 1008.49 1008.72 1008.88 1009.14 1009.21 1009.26 1009.30 1009.15 1009.03 1009.12 1009.25 1009.28 1009.42 1009.50 1009.59 1009.62 1009.49 1009.30 1009.00 1009.10 1008.94 1008.38 1008.07 1007.68 1007.27 1007.09 1006.09 1004.55 1005.49 1006.43
1020.50 1020.05 1019.21 1018.17 1016.97 1016.67 1016.37 1015.05 1013.81 1012.54 1011.97 1011.54 1011.10 1010.74 1010.28 1009.88 1009.64 1009.29 1009.25 1009.38 1009.52 1009.59 1009.42 1009.33 1009.27 1009.33 1009.46 1009.34 1009.20 1009.16 1009.15 1009.12 1009.12 1009.21 1009.23 1009.03 1008.79 1008.61 1008.56 1008.29 1008.00 1007.82 1007.50 1007.25 1006.79 1006.30 1005.21 1004.28 1005.22
1020.82 1020.20 1019.37 1018.35 1017.60 1017.29 1016.48 1015.20 1013.38 1012.09 1011.63 1010.84 1010.22 1010.39 1010.01 1010.08 1010.42 1010.16 1010.15 1010.26 1010.41 1010.40 1010.26 1010.16 1009.88 1009.57 1009.57 1009.64 1009.62 1009.41 1009.26 1009.07 1008.92 1008.87 1008.76 1008.69 1008.43 1008.12 1008.09 1007.68 1007.52 1007.36 1007.16 1007.01 1006.93 1006.11 1005.67 1003.55 1004.30
1020.52 1019.93 1019.30 1018.34 1017.77 1017.65 1016.49 1015.24 1013.16 1012.38 1011.24 1010.06 1009.73 1010.56 1010.86 1011.16 1011.10 1010.98 1010.85 1010.82 1010.90 1011.00 1010.93 1010.76 1010.57 1010.12 1009.76 1009.63 1009.47 1009.37 1009.19 1008.88 1008.71 1008.56 1008.38 1008.21 1007.94 1007.63 1007.50 1007.20 1006.94 1006.81 1006.73 1006.46 1006.38 1005.98 1004.69 1004.34 1002.83
1020.26 1019.90 1019.25 1019.04 1018.02 1017.76 1017.21 1015.53 1013.29 1012.04 1011.51 1010.44 1010.29 1011.45 1011.73 1011.80 1011.66 1011.59 1011.57 1011.54 1011.44 1011.38 1011.18 1010.89 1010.52 1010.19 1009.90 1009.58 1009.29 1009.06 1008.85 1008.50 1008.20 1007.94 1007.73 1007.58 1007.48 1007.25 1006.98 1006.77 1006.58 1006.23 1006.21 1005.92 1005.80 1005.57 1005.01 1004.74 1003.81
1020.03 1019.94 1019.66 1019.63 1019.48 1018.67 1018.21 1017.23 1014.39 1012.81 1012.28 1012.67 1012.49 1012.35 1012.51 1012.61 1012.58 1012.44 1011.79 1011.28 1011.51 1011.42 1011.23 1010.93 1010.54 1010.17 1009.73 1009.44 1009.19 1008.96 1008.70 1008.22 1007.67 1007.49 1007.25 1007.02 1006.85 1006.56 1006.30 1006.09 1005.88 1005.61 1005.57 1005.47 1005.33 1004.89 1004.52 1004.27 1004.04
1020.65 1020.53 1020.45 1020.30 1020.46 1020.50 1018.79 1018.63 1015.36 1013.77 1013.49 1013.58 1013.41 1013.12 1013.07 1012.93 1012.77 1012.41 1012.44 1012.19 1011.93 1011.55 1011.18 1010.81 1010.42 1010.01 1009.59 1009.25 1008.97 1008.58 1008.07 1007.72 1007.37 1007.03 1006.72 1006.49 1006.26 1006.05 1005.64 1005.40 1005.15 1004.94 1004.88 1004.72 1004.88 1004.68 1003.79 1003.29 1003.92
1021.39 1021.18 1021.10 1021.43 1022.22 1022.66 1020.12 1019.23 1016.34 1014.89 1014.09 1013.55 1013.56 1013.70 1013.32 1012.96 1012.89 1012.89 1012.68 1012.33 1011.67 1011.16 1010.90 1010.59 1010.18 1009.69 1009.25 1008.80 1008.41 1008.07 1007.63 1007.24 1006.91 1006.48 1006.18 1005.83 1005.54 1005.16 1004.77 1004.45 1004.30 1004.24 1004.08 1004.01 1003.92 1003.95 1003.62 1002.90 1002.94
1022.60 1022.75 1023.16 1023.38 1023.80 1022.96 1020.23 1018.97 1016.47 1014.91 1014.32 1014.14 1014.21 1013.79 1013.47 1013.36 1013.27 1013.05 1012.70 1012.24 1011.74 1011.16 1010.49 1010.14 1009.70 1009.21 1008.85 1008.40 1007.89 1007.40 1006.94 1006.63 1006.17 1005.82 1005.43 1005.18 1004.80 1004.42 1003.95 1003.72 1003.45 1003.32 1003.25 1003.21 1003.14 1003.23 1002.67 1002.07 1002.13
1023.03 1023.82 1024.23 1024.09 1024.45 1022.96 1020.59 1018.84 1016.16 1014.90 1014.46 1014.58 1014.48 1014.06 1013.69 1013.57 1013.34 1013.01 1012.63 1012.13 1011.60 1010.98 1010.25 1009.67 1009.16 1008.54 1008.14 1007.65 1007.06 1006.58 1006.24 1005.81 1005.36 1004.99 1004.61 1004.21 1003.92 1003.59 1003.32 1003.02 1002.64 1002.52 1002.45 1002.39 1002.40 1002.17 1001.85 1001.17 1001.35
1023.56 1024.18 1023.82 1024.07 1024.63 1023.98 1021.66 1018.86 1016.40 1015.29 1015.00 1015.02 1014.61 1014.14 1013.91 1013.61 1013.30 1013.00 1012.57 1012.13 1011.44 1010.81 1010.11 1009.32 1008.40 1007.64 1007.13 1006.60 1006.07 1005.49 1005.11 1004.85 1004.45 1004.16 1003.78 1003.12 1002.86 1002.51 1002.39 1002.10 1001.80 1001.62 1001.67 1001.61 1001.41 1001.12 1000.84 1000.81 1000.65
1024.14 1024.22 1024.27 1024.70 1024.88 1024.29 1022.36 1020.39 1018.36 1016.96 1016.37 1015.51 1014.82 1014.49 1014.03 1013.70 1013.39 1012.99 1012.39 1011.82 1011.15 1010.39 1009.53 1008.78 1007.87 1006.93 1006.10 1005.44 1004.94 1004.32 1003.90 1003.60 1003.32 1003.13 1002.51 1002.13 1001.78 1001.64 1001.35 1001.10 1000.92 1000.83 1000.81 1000.72 1000.61 1000.60 1000.35 999.93 999.73
1024.88 1025.21 1025.13 1025.08 1025.50 1025.28 1024.26 1021.24 1018.81 1018.19 1017.36 1016.32 1015.28 1014.48 1014.10 1013.77 1013.68 1013.27 1012.53 1011.72 1010.96 1010.17 1009.23 1008.20 1007.05 1005.96 1004.99 1004.31 1003.68 1003.03 1002.56 1002.22 1001.93 1001.49 1001.19 1000.96 1000.94 1000.64 1000.43 1000.19 1000.10 999.95 999.97 999.96 999.97 999.88 999.65 999.40 999.26
1025.94 1026.13 1026.43 1026.64 1026.68 1026.19 1025.35 1020.75 1018.74 1017.87 1017.08 1016.39 1015.25 1014.57 1014.12 1014.02 1013.84 1013.12 1012.43 1011.62 1010.59 1009.65 1008.51 1007.26 1005.89 1005.02 1004.08 1003.22 1002.35 1001.58 1001.02 1000.62 1000.25 999.95 999.85 999.94 999.54 999.64 999.46 999.36 999.16 999.06 998.98 998.90 998.96 998.96 998.70 998.69 998.37
Wind_Speed
8 9 0 5 3 5 5 7 3 7 6 1 6 3 8 7 6 6 4 6 7 7 5 6 13 17 18 20 19 18 15 11 8 11 13 11 12 14 14 14 15 17 19 19 18 17 15 13 11
6 6 5 3 4 2 7 8 11 9 5 13 11 6 3 4 4 3 4 4 6 7 5 5 12 16 18 19 19 19 17 14 13 7 11 14 13 15 16 16 16 18 19 19 19 17 14 13 13
4 1 5 4 4 9 7 5 2 6 8 5 8 1 3 1 0 2 4 5 7 6 6 6 12 14 16 17 17 17 17 16 13 9 7 12 14 17 17 17 17 17 19 19 19 17 16 14 14
3 5 4 3 11 9 4 6 8 15 14 10 2 8 3 4 3 3 2 6 8 7 7 8 12 14 14 15 16 17 15 14 15 10 10 12 15 17 18 18 18 19 19 19 20 18 18 15 14
4 3 1 4 9 5 5 7 7 16 8 6 5 4 3 2 1 3 5 6 7 7 7 7 14 14 14 14 15 15 13 14 13 15 13 12 11 15 18 20 19 19 19 20 20 19 18 16 15
4 3 2 7 6 4 6 7 5 5 6 5 4 2 4 3 2 4 7 7 6 6 6 6 9 11 11 12 13 13 13 14 15 15 14 14 12 10 15 21 22 21 20 19 21 20 19 18 16
6 4 5 4 10 7 9 6 8 7 5 1 4 5 5 3 3 5 5 5 4 4 5 4 4 5 7 8 9 11 12 12 15 16 14 11 13 12 12 16 23 23 22 21 21 21 21 20 18
4 4 3 4 6 8 3 4 2 1 7 5 1 5 2 3 3 4 3 1 2 2 1 1 1 2 3 3 6 8 9 12 11 14 14 10 9 10 11 11 16 24 24 23 21 19 22 21 20
3 2 3 6 4 7 1 6 4 4 7 3 2 3 6 8 6 4 4 3 4 4 5 3 2 1 2 2 1 3 7 9 10 9 11 8 5 6 8 10 11 17 23 24 21 20 22 21 18
4 4 8 6 5 16 7 8 7 7 15 9 7 7 8 11 16 15 8 7 7 6 6 6 5 5 3 3 2 2 2 2 4 5 6 5 6 7 9 10 14 15 18 21 24 20 19 18 10
4 6 7 7 11 15 18 15 7 7 21 11 15 7 9 9 10 10 16 11 9 7 5 7 7 6 6 4 2 2 1 0 2 5 5 6 5 5 5 4 6 7 14 12 15 14 11 14 10
5 7 8 13 6 8 18 14 10 12 20 8 13 15 9 13 14 13 12 13 11 8 7 8 8 6 7 4 4 3 2 1 1 3 6 4 4 5 5 5 5 7 7 12 14 11 13 14 14
10 9 5 8 14 17 22 17 22 19 15 18 17 17 18 17 17 10 11 9 9 8 9 7 6 6 5 2 1 2 3 1 3 3 4 4 5 5 5 6 6 4 6 9 10 13 13 13 14
3 5 8 6 15 16 23 17 10 18 19 18 18 18 17 15 16 8 8 8 7 7 8 5 4 0 2 3 2 2 2 3 3 4 5 5 4 4 5 7 8 6 4 8 11 12 13 13 14
6 15 10 9 6 7 10 24 8 15 16 11 11 10 11 12 9 11 9 8 8 5 4 5 5 3 4 3 3 1 1 1 2 4 5 6 5 5 6 7 8 7 5 7 9 10 13 12 13
6 2 6 3 13 4 10 27 17 18 20 20 18 19 12 14 12 10 11 9 7 6 3 3 4 3 3 3 2 2 1 2 2 4 4 7 6 6 6 7 7 7 6 5 5 11 13 12 14
2 11 19 17 13 11 6 25 23 21 17 16 14 14 13 16 14 9 7 3 6 6 3 1 2 4 5 3 2 3 3 2 3 3 4 7 9 8 6 7 8 9 6 6 8 7 14 14 13
16 19 17 23 17 17 15 22 19 24 20 17 17 12 11 11 8 3 8 7 7 7 7 7 6 6 5 4 3 3 3 3 3 4 4 7 8 9 8 8 9 6 5 6 7 4 13 14 14
13 17 18 20 20 12 19 21 25 25 20 20 16 8 8 7 6 8 9 8 7 7 7 7 8 7 5 2 3 2 3 3 3 3 6 8 8 10 10 8 8 7 5 6 9 9 11 12 16
11 16 15 17 13 14 18 27 25 18 16 18 14 3 7 7 8 7 7 6 7 6 6 6 6 7 6 3 3 3 3 4 5 6 8 9 11 11 11 10 9 9 7 6 9 11 8 8 9
12 13 11 16 21 14 8 13 14 13 10 15 15 12 7 6 9 11 8 6 5 6 7 8 7 7 7 7 6 4 4 4 7 9 8 10 12 13 11 11 9 8 6 6 6 10 11 8 3
15 9 11 16 14 11 5 7 8 10 8 12 11 11 11 9 7 5 8 10 8 8 7 8 10 11 10 7 8 8 8 10 9 8 7 8 10 11 12 13 12 11 8 7 5 8 11 9 6
8 13 11 18 13 4 7 4 9 13 8 7 6 7 7 6 5 8 8 8 9 8 8 10 11 11 12 11 11 10 12 10 9 9 12 12 12 12 13 11 10 12 9 9 8 9 13 11 10
10 9 16 5 4 4 6 6 7 2 3 2 2 8 8 8 7 7 7 9 10 10 9 10 11 13 12 12 12 12 13 12 11 12 11 10 9 9 15 15 13 12 11 10 9 10 14 12 11
9 8 6 7 6 7 7 6 9 2 4 2 4 9 8 7 8 8 10 11 11 13 13 12 13 14 14 14 15 15 16 16 17 15 12 13 10 11 12 12 10 10 11 11 9 10 12 12 9
14 5 2 6 3 9 8 5 7 5 3 4 7 8 10 9 9 10 11 12 13 15 15 14 14 15 15 15 16 15 16 11 12 14 13 12 12 11 13 14 12 12 10 10 10 9 10 13 10
4 4 6 5 1 4 3 7 12 5 6 9 14 14 12 9 11 11 11 10 12 13 15 15 16 17 16 16 15 16 15 16 15 16 15 13 15 13 16 16 14 13 12 12 12 7 11 13 13
2 6 6 4 5 5 5 6 6 11 10 17 16 15 13 9 11 13 13 13 13 15 15 16 17 18 18 18 16 15 16 17 16 16 18 18 16 17 16 17 17 16 13 12 11 10 12 14 11
7 5 4 2 2 3 4 8 8 7 6 13 14 15 11 10 12 13 13 14 14 14 14 16 17 18 18 17 17 18 17 18 17 18 18 18 17 17 18 17 16 16 14 12 11 12 13 17 13
4 6 3 2 8 2 3 10 3 5 9 7 13 14 12 9 10 12 12 13 14 15 16 16 17 17 17 17 18 19 18 18 19 19 19 18 20 17 18 18 18 18 16 15 13 13 14 16 16
Wind_Direction
340 316 52 40 57 66 281 252 275 290 316 68 326 271 244 225 195 220 220 130 140 99 77 56 44 41 40 48 47 44 47 32 235 192 188 199 193 173 168 165 164 165 166 167 170 172 166 156 158
352 335 42 75 96 231 250 207 216 224 243 336 333 322 316 263 50 22 36 21 91 103 80 55 51 42 40 43 46 45 40 38 36 270 208 192 202 189 179 174 172 171 170 170 173 177 169 162 163
310 103 80 130 186 213 229 216 251 317 288 274 323 294 325 76 118 100 2 32 49 44 65 62 47 46 44 36 37 38 40 31 32 17 337 224 212 201 191 182 178 178 176 174 176 182 178 171 166
36 18 32 122 239 258 247 321 346 322 305 310 258 300 57 341 5 55 1 48 47 17 28 43 49 44 42 36 29 24 27 32 24 15 18 5 237 222 203 193 185 183 183 181 179 179 182 172 170
31 43 30 252 256 266 280 278 290 286 288 291 342 277 70 10 177 98 52 43 50 27 28 23 45 42 30 27 19 15 19 15 21 11 9 11 350 249 224 201 192 190 189 187 181 177 178 174 173
50 96 169 235 247 303 267 248 268 261 289 309 11 317 198 183 105 40 37 33 27 42 34 28 28 30 33 29 12 14 12 6 2 3 1 351 351 328 261 228 199 196 195 193 185 179 174 174 178
121 111 232 277 268 271 274 324 292 308 301 210 286 242 197 153 48 74 35 23 25 37 19 33 32 28 24 16 15 10 6 5 350 343 345 338 340 328 305 255 224 200 199 197 194 181 176 176 178
107 105 296 263 269 290 273 319 325 14 271 333 359 269 241 122 124 156 199 205 298 305 328 290 20 51 40 30 1 3 352 345 353 339 333 332 336 316 303 269 242 222 203 201 198 189 178 179 178
97 67 247 258 268 260 35 334 287 257 253 186 269 255 252 292 215 221 218 233 235 249 257 251 244 205 168 207 198 358 337 342 347 344 333 336 323 324 310 272 237 233 223 206 200 194 184 180 181
132 157 225 220 263 288 273 269 268 280 291 276 280 270 291 317 316 308 288 254 216 221 228 226 218 234 223 262 221 257 296 344 337 336 329 322 318 312 312 304 251 236 228 220 204 197 191 178 182
192 217 249 278 286 299 300 291 293 277 280 273 285 251 254 256 278 283 290 276 247 213 219 218 237 224 217 219 223 245 238 275 333 321 321 314 320 314 311 295 309 232 224 221 214 198 193 188 179
291 247 272 294 314 307 290 305 276 268 284 277 264 264 265 261 266 267 265 266 279 268 234 236 234 236 233 207 198 213 202 174 299 294 307 314 312 308 299 294 284 313 227 218 206 202 196 190 184
248 261 282 302 301 291 292 289 287 289 285 286 279 272 264 265 266 245 253 270 263 265 273 261 254 256 273 248 275 192 218 171 240 276 287 296 291 293 295 291 281 255 301 237 206 200 196 190 184
272 276 278 260 277 282 280 287 300 295 290 284 280 280 274 263 248 256 244 255 269 261 263 303 302 10 86 74 80 8 9 282 270 277 279 290 280 283 290 293 289 271 247 298 224 205 195 193 183
284 298 293 257 261 266 306 286 278 292 294 283 282 287 283 270 269 255 262 254 243 261 211 155 141 67 50 41 24 35 305 319 294 279 276 271 275 279 285 288 291 280 267 261 291 207 197 194 188
301 303 316 2 296 253 309 293 309 292 288 286 287 291 266 262 254 248 244 240 249 169 133 49 35 48 40 1 339 323 316 296 272 267 268 275 265 267 282 286 282 285 278 259 281 249 193 191 187
255 294 311 313 321 310 282 291 296 292 286 280 279 273 277 281 279 271 276 110 127 121 107 35 5 344 334 335 329 320 304 267 261 271 265 264 267 263 260 270 271 278 291 277 247 296 206 193 194
303 309 302 309 320 313 307 292 297 294 295 289 278 268 260 267 288 24 66 58 46 27 17 3 353 352 347 339 329 310 298 275 253 252 255 263 268 259 258 264 263 265 275 287 281 280 286 208 192
294 296 300 300 308 308 298 301 294 292 295 285 276 266 283 75 42 46 49 40 26 18 9 360 340 333 345 353 343 324 296 302 292 271 265 268 265 263 260 260 266 272 257 262 278 264 243 223 188
301 292 293 300 304 309 305 293 290 297 286 283 281 122 62 43 25 16 21 19 18 358 356 341 326 317 312 297 259 242 258 261 267 268 268 273 277 268 261 256 257 260 266 255 263 261 265 271 220
301 293 295 307 312 298 304 294 309 317 356 31 54 77 58 40 14 354 354 360 3 349 332 328 318 308 290 284 284 270 262 268 265 263 264 257 257 262 262 263 254 255 245 241 243 266 248 235 250
301 295 307 311 323 303 99 282 306 335 352 27 32 41 25 7 349 311 339 353 348 328 320 312 309 303 295 288 282 265 260 262 263 266 265 264 261 265 260 256 256 256 254 250 231 250 250 234 223
288 314 301 307 290 34 338 63 279 327 59 24 348 354 353 346 343 345 334 320 307 307 300 302 298 293 291 285 274 268 263 262 265 261 261 252 254 258 261 258 257 252 250 247 232 250 264 234 221
329 321 323 24 88 26 246 107 286 334 281 178 339 339 328 318 322 315 295 294 298 299 295 293 292 288 285 282 279 272 269 266 259 256 259 256 253 248 248 251 249 252 250 242 238 250 253 235 218
2 358 304 347 0 224 289 327 246 208 243 189 283 314 309 309 309 298 301 305 303 300 299 296 293 288 284 278 273 268 264 260 257 256 253 254 249 248 251 248 244 242 245 245 235 243 260 228 195
314 182 222 288 260 287 307 246 266 210 201 355 292 287 304 306 296 295 301 297 298 299 298 296 290 287 285 280 272 268 263 258 256 251 249 249 245 246 245 251 249 249 244 240 235 240 246 231 193
340 18 233 259 64 43 266 289 303 180 327 346 333 332 320 295 300 300 300 300 301 301 298 299 296 290 283 278 274 267 264 257 255 254 251 246 244 240 242 244 247 244 250 248 245 243 246 229 193
8 277 339 348 315 302 293 283 237 316 313 329 332 330 317 303 315 319 323 314 310 308 303 297 291 288 285 283 276 270 265 260 255 250 247 245 244 241 240 237 239 242 244 246 245 245 257 229 195
334 330 298 174 118 318 319 267 226 250 257 309 311 322 315 310 317 316 308 311 305 297 295 292 288 286 285 282 276 271 266 260 254 248 245 243 244 238 235 236 236 238 234 238 241 237 242 236 206
198 217 218 29 308 259 180 274 212 221 286 284 305 317 317 309 300 298 304 308 304 302 301 293 293 296 291 284 277 271 267 259 250 246 242 241 239 236 234 234 233 233 235 234 235 233 231 231 183